GW2670 Weather Reports


time (UTC)temp
C
wind
direction
speed
KPH
gust
KPH
rain 1hr
cm
rain 24hr
cm
rain mn
cm
humidity
%
barometer
mb
20260510021010 10 0 0.0 0.0 0.10 0.43 0.43 94 1012.3
20260510020511 10 0 0.0 0.0 0.10 0.43 0.43 94 1012.3
20260510020031 10 0 0.0 0.0 0.08 0.41 0.41 94 1012.4
20260510015511 10 0 0.0 0.0 0.10 0.41 0.41 94 1012.4
20260510015012 10 0 0.0 0.0 0.08 0.38 0.38 94 1012.5
20260510014530 10 0 0.0 1.6 0.08 0.38 0.38 94 1012.6
20260510014012 10 0 0.0 1.6 0.08 0.38 0.38 94 1012.7
20260510013512 10 0 0.0 3.2 0.08 0.36 0.36 94 1012.7
20260510013030 10 0 0.0 3.2 0.08 0.36 0.36 94 1012.9
20260510012512 10 178 0.0 1.6 0.08 0.36 0.36 94 1012.9
20260510012011 10 0 0.0 0.0 0.05 0.33 0.33 93 1012.7
20260510011528 10 0 0.0 0.0 0.08 0.33 0.33 93 1012.7
20260510011013 10 0 0.0 0.0 0.08 0.30 0.30 93 1012.7
20260510010513 10 0 0.0 0.0 0.08 0.30 0.30 93 1012.6
20260510010027 10 0 0.0 0.0 0.08 0.30 0.30 93 1012.7
20260510005512 10 0 0.0 0.0 0.08 0.28 0.28 93 1012.7
20260510005012 10 0 0.0 0.0 0.08 0.28 0.28 93 1012.9
20260510004530 10 0 0.0 0.0 0.10 0.28 0.28 93 1012.9
20260510004019 10 0 0.0 0.0 0.10 0.28 0.28 92 1013.0
20260510003510 10 0 0.0 0.0 0.10 0.28 0.28 92 1013.1
20260510003028 10 0 0.0 0.0 0.10 0.28 0.28 92 1013.0
20260510002513 10 0 0.0 0.0 0.10 0.28 0.28 92 1013.2
20260510002012 10 0 0.0 1.6 0.13 0.28 0.28 92 1013.3
20260510001530 10 0 0.0 1.6 0.10 0.25 0.25 92 1013.4
20260510001012 10 346 0.0 1.6 0.10 0.23 0.23 91 1013.5
20260510000511 10 0 0.0 1.6 0.10 0.23 0.23 91 1013.5
20260510000030 10 346 0.0 1.6 0.10 0.20 0.20 91 1013.6
20260509235512 10 0 0.0 1.6 0.10 0.20 0.20 90 1013.8
20260509235010 10 0 0.0 1.6 0.10 0.18 0.18 90 1013.8
20260509234529 10 167 0.0 1.6 0.10 0.18 0.18 90 1013.8
20260509234010 10 0 0.0 1.6 0.10 0.18 0.18 90 1013.8
20260509233512 10 0 0.0 0.0 0.08 0.15 0.15 90 1013.9
20260509233028 10 0 0.0 1.6 0.10 0.15 0.15 89 1013.9
20260509232515 10 0 0.0 1.6 0.10 0.15 0.15 89 1013.9
20260509232009 10 151 0.0 1.6 0.10 0.13 0.13 88 1014.0
20260509231530 10 0 0.0 1.6 0.10 0.13 0.13 88 1013.9
20260509231014 10 126 0.0 0.0 0.08 0.10 0.10 88 1014.1
20260509230515 10 0 0.0 0.0 0.10 0.10 0.10 87 1014.1
20260509230030 10 0 0.0 0.0 0.08 0.08 0.08 86 1014.1
20260509225516 10 0 0.0 0.0 0.08 0.08 0.08 86 1014.1
20260509225014 10 0 0.0 0.0 0.08 0.08 0.08 85 1014.1
20260509224537 11 0 0.0 0.0 0.05 0.05 0.05 85 1014.1
20260509224015 11 0 0.0 1.6 0.05 0.05 0.05 83 1014.0
20260509223515 11 159 0.0 6.4 0.05 0.05 0.05 83 1013.9
20260509223031 11 135 1.6 6.4 0.03 0.03 0.03 82 1013.9
20260509222515 11 197 1.6 6.4 0.03 0.03 0.03 81 1013.9
20260509222012 11 196 3.2 8.0 0.00 0.00 0.00 79 1013.8
20260509221532 11 203 4.8 8.0 0.00 0.00 0.00 77 1013.8
20260509221020 12 164 4.8 8.0 0.00 0.00 0.00 74 1013.8
20260509220517 12 213 3.2 6.4 0.00 0.00 0.00 71 1013.7
20260509220031 12 111 1.6 3.2 0.00 0.00 0.00 67 1013.6
20260509215514 13 87 0.0 11.3 0.00 0.00 0.00 63 1013.7
20260509215013 13 99 3.2 14.5 0.00 0.00 0.00 60 1013.8
20260509214533 13 155 4.8 14.5 0.00 0.00 0.00 59 1013.6
20260509214015 13 128 4.8 12.9 0.00 0.00 0.00 58 1013.6
20260509213515 13 165 3.2 12.9 0.00 0.00 0.00 57 1013.6
20260509213032 13 160 3.2 11.3 0.00 0.00 0.00 57 1013.5
20260509212513 13 213 3.2 8.0 0.00 0.00 0.00 57 1013.4
20260509212014 13 252 1.6 3.2 0.00 0.00 0.00 57 1013.4
20260509211540 13 234 0.0 6.4 0.00 0.00 0.00 56 1013.4
20260509211014 13 239 0.0 6.4 0.00 0.00 0.00 56 1013.4
20260509210518 13 102 1.6 6.4 0.00 0.00 0.00 56 1013.3
20260509210032 13 0 0.0 3.2 0.00 0.00 0.00 56 1013.3
20260509205514 13 217 0.0 4.8 0.00 0.00 0.00 55 1013.1
20260509205017 13 0 0.0 4.8 0.00 0.00 0.00 55 1013.0
20260509204530 13 180 1.6 4.8 0.00 0.00 0.00 54 1013.0
20260509204014 13 60 0.0 3.2 0.00 0.00 0.00 54 1012.8
20260509203513 14 169 0.0 4.8 0.00 0.00 0.00 54 1012.8
20260509203030 14 79 1.6 8.0 0.00 0.00 0.00 53 1012.7
20260509202515 14 105 1.6 8.0 0.00 0.00 0.00 53 1012.6
20260509202018 14 113 1.6 8.0 0.00 0.00 0.00 53 1012.5
20260509201530 14 189 3.2 8.0 0.00 0.00 0.00 52 1012.5
20260509201013 14 113 1.6 6.4 0.00 0.00 0.00 52 1012.6
20260509200733 14 126 3.2 6.4 0.00 0.00 0.00 52 1012.6
20260509200030 14 145 3.2 6.4 0.00 0.00 0.00 52 1012.5
20260509195615 14 127 3.2 8.0 0.00 0.00 0.00 51 1012.5
20260509195014 14 175 3.2 8.0 0.00 0.00 0.00 51 1012.5
20260509194530 14 138 3.2 9.7 0.00 0.00 0.00 51 1012.6
20260509194020 14 167 4.8 9.7 0.00 0.00 0.00 51 1012.5
20260509193515 14 201 4.8 8.0 0.00 0.00 0.00 51 1012.6
20260509193032 14 138 3.2 8.0 0.00 0.00 0.00 51 1012.5
20260509192514 14 173 1.6 6.4 0.00 0.00 0.00 51 1012.5
20260509192015 14 200 1.6 6.4 0.00 0.00 0.00 52 1012.5
20260509191534 14 124 1.6 6.4 0.00 0.00 0.00 51 1012.5
20260509191016 15 240 3.2 6.4 0.00 0.00 0.00 50 1012.5
20260509190515 15 0 1.6 6.4 0.00 0.00 0.00 51 1012.5
20260509190030 15 147 1.6 9.7 0.00 0.00 0.00 51 1012.4
20260509185515 15 148 1.6 9.7 0.00 0.00 0.00 51 1012.3
20260509185018 15 195 3.2 14.5 0.00 0.00 0.00 51 1012.3
20260509184534 15 91 1.6 14.5 0.00 0.00 0.00 51 1012.2
20260509184015 15 146 4.8 12.9 0.00 0.00 0.00 51 1012.2
20260509183517 15 0 0.0 6.4 0.00 0.00 0.00 51 1012.2
20260509183030 15 79 1.6 9.7 0.00 0.00 0.00 51 1012.2
20260509182514 15 158 4.8 9.7 0.00 0.00 0.00 50 1012.3
20260509182014 15 148 1.6 9.7 0.00 0.00 0.00 50 1012.3
20260509181532 15 121 1.6 9.7 0.00 0.00 0.00 50 1012.2
20260509181015 15 159 1.6 9.7 0.00 0.00 0.00 50 1012.1
20260509180514 15 232 1.6 9.7 0.00 0.00 0.00 50 1012.1
20260509180030 15 173 3.2 12.9 0.00 0.00 0.00 49 1012.1
20260509175514 15 213 1.6 12.9 0.00 0.00 0.00 49 1012.0
20260509175014 15 194 1.6 8.0 0.00 0.00 0.00 50 1011.9
20260509174530 15 157 1.6 6.4 0.00 0.00 0.00 50 1011.9
20260509174018 15 127 1.6 6.4 0.00 0.00 0.00 50 1011.9
20260509173514 15 120 1.6 9.7 0.00 0.00 0.00 50 1011.9
20260509173030 15 0 3.2 9.7 0.00 0.00 0.00 50 1011.9
20260509172513 15 52 3.2 9.7 0.00 0.00 0.00 51 1011.9
20260509172014 15 139 1.6 6.4 0.00 0.00 0.00 51 1011.9
20260509171533 16 174 0.0 6.4 0.00 0.00 0.00 52 1011.8
20260509171014 16 190 1.6 6.4 0.00 0.00 0.00 52 1011.9
20260509170514 16 37 0.0 9.7 0.00 0.00 0.00 52 1011.8
20260509170030 16 142 1.6 11.3 0.00 0.00 0.00 51 1011.9
20260509165515 16 101 3.2 11.3 0.00 0.00 0.00 50 1011.9
20260509165017 16 139 1.6 8.0 0.00 0.00 0.00 50 1012.0
20260509164531 16 209 1.6 9.7 0.00 0.00 0.00 50 1012.0
20260509164012 16 224 1.6 9.7 0.00 0.00 0.00 51 1012.0
20260509163515 16 215 0.0 8.0 0.00 0.00 0.00 51 1012.0
20260509163032 16 144 0.0 9.7 0.00 0.00 0.00 51 1012.1
20260509162515 16 188 3.2 9.7 0.00 0.00 0.00 50 1012.2
20260509162016 16 0 1.6 9.7 0.00 0.00 0.00 50 1012.4
20260509161530 16 210 3.2 9.7 0.00 0.00 0.00 49 1012.4
20260509161014 16 214 3.2 8.0 0.00 0.00 0.00 50 1012.6
20260509160513 16 0 1.6 8.0 0.00 0.00 0.00 52 1012.7
20260509160032 16 144 1.6 11.3 0.00 0.00 0.00 52 1012.8
20260509155515 16 284 3.2 14.5 0.00 0.00 0.00 50 1012.9
20260509155014 16 184 3.2 14.5 0.00 0.00 0.00 52 1012.9
20260509154529 16 240 0.0 14.5 0.00 0.00 0.00 53 1012.9
20260509154018 16 292 1.6 14.5 0.00 0.00 0.00 54 1013.0
20260509153512 16 171 1.6 16.1 0.00 0.00 0.00 54 1012.9
20260509153028 16 219 1.6 16.1 0.00 0.00 0.00 53 1013.0
20260509152515 17 80 3.2 11.3 0.00 0.00 0.00 52 1012.9
20260509152011 17 90 3.2 11.3 0.00 0.00 0.00 53 1012.9
20260509151530 17 248 1.6 11.3 0.00 0.00 0.00 55 1013.0
20260509151014 17 168 1.6 19.3 0.00 0.00 0.00 53 1012.9
20260509150513 16 207 4.8 19.3 0.00 0.00 0.00 53 1013.0
20260509150028 17 146 6.4 20.9 0.00 0.00 0.00 53 1012.9
20260509145515 17 198 6.4 20.9 0.00 0.00 0.00 53 1013.1
20260509145015 17 202 8.0 16.1 0.00 0.00 0.00 53 1013.1
20260509144536 17 219 1.6 12.9 0.00 0.00 0.00 53 1013.2
20260509144011 17 304 3.2 16.1 0.00 0.00 0.00 53 1013.2
20260509143513 17 126 4.8 19.3 0.00 0.00 0.00 52 1013.2
20260509143030 17 319 6.4 19.3 0.00 0.00 0.00 55 1013.3
20260509142510 17 205 9.7 17.7 0.00 0.00 0.00 52 1013.2
20260509142014 17 272 8.0 19.3 0.00 0.00 0.00 52 1013.1
20260509141531 17 234 8.0 19.3 0.00 0.00 0.00 53 1013.1
20260509141015 17 231 8.0 20.9 0.00 0.00 0.00 53 1013.2
20260509140513 17 213 9.7 20.9 0.00 0.00 0.00 53 1013.3
20260509140028 17 202 9.7 25.7 0.00 0.00 0.00 53 1013.4
20260509135515 18 157 8.0 25.7 0.00 0.00 0.00 54 1013.3
20260509135015 18 76 4.8 17.7 0.00 0.00 0.00 54 1013.4
20260509134530 17 195 8.0 16.1 0.00 0.00 0.00 54 1013.4
20260509134014 17 210 4.8 37.0 0.00 0.00 0.00 57 1013.7
20260509133519 17 126 8.0 37.0 0.00 0.00 0.00 58 1013.6
20260509133032 17 256 9.7 22.5 0.00 0.00 0.00 57 1013.6
20260509132512 17 128 6.4 19.3 0.00 0.00 0.00 58 1013.7
20260509132014 17 207 3.2 9.7 0.00 0.00 0.00 59 1013.6
20260509131532 17 65 4.8 16.1 0.00 0.00 0.00 58 1013.7
20260509131012 18 57 3.2 17.7 0.00 0.00 0.00 58 1013.6
20260509130514 17 233 4.8 17.7 0.00 0.00 0.00 58 1013.7
20260509130049 17 289 4.8 12.9 0.00 0.00 0.00 59 1013.7
20260509125517 17 77 3.2 17.7 0.00 0.00 0.00 59 1013.7
20260509125014 17 251 1.6 17.7 0.00 0.00 0.00 62 1013.7
20260509124537 17 121 1.6 17.7 0.00 0.00 0.00 61 1013.8
20260509124015 17 157 3.2 19.3 0.00 0.00 0.00 59 1013.8
20260509123514 17 136 8.0 19.3 0.00 0.00 0.00 58 1013.9
20260509123029 17 180 4.8 17.7 0.00 0.00 0.00 61 1013.8
20260509122512 17 229 3.2 20.9 0.00 0.00 0.00 59 1013.9
20260509122013 17 76 3.2 20.9 0.00 0.00 0.00 59 1013.8
20260509121529 17 271 4.8 19.3 0.00 0.00 0.00 59 1013.8
20260509121013 17 98 6.4 19.3 0.00 0.00 0.00 60 1013.8
20260509120514 18 97 4.8 19.3 0.00 0.00 0.00 58 1013.8
20260509120033 18 233 8.0 19.3 0.00 0.00 0.00 59 1014.0
20260509115515 17 168 1.6 17.7 0.00 0.00 0.00 61 1014.1
20260509115014 17 167 4.8 17.7 0.00 0.00 0.00 61 1014.3
20260509114531 17 224 3.2 19.3 0.00 0.00 0.00 61 1014.4
20260509114013 17 138 3.2 19.3 0.00 0.00 0.00 61 1014.4
20260509113516 18 120 3.2 9.7 0.00 0.00 0.00 59 1014.5
20260509113029 17 340 3.2 12.9 0.00 0.00 0.00 59 1014.5
20260509112514 17 219 3.2 27.4 0.00 0.00 0.00 61 1014.6
20260509112016 17 181 6.4 27.4 0.00 0.00 0.00 61 1014.6
20260509111528 17 215 11.3 27.4 0.00 0.00 0.00 60 1014.6
20260509111014 18 210 4.8 20.9 0.00 0.00 0.00 60 1014.7
20260509110516 18 101 6.4 20.9 0.00 0.00 0.00 63 1014.6
20260509110027 18 256 4.8 14.5 0.00 0.00 0.00 62 1014.6
20260509105513 17 211 4.8 19.3 0.00 0.00 0.00 63 1014.7
20260509105014 17 63 8.0 19.3 0.00 0.00 0.00 63 1014.6
20260509104528 17 201 8.0 19.3 0.00 0.00 0.00 62 1014.5
20260509104013 17 164 8.0 17.7 0.00 0.00 0.00 61 1014.5
20260509103514 17 150 3.2 16.1 0.00 0.00 0.00 62 1014.6
20260509103027 17 330 3.2 17.7 0.00 0.00 0.00 63 1014.6
20260509102514 17 184 4.8 17.7 0.00 0.00 0.00 62 1014.7
20260509102011 17 193 3.2 16.1 0.00 0.00 0.00 64 1014.6
20260509101534 17 140 3.2 16.1 0.00 0.00 0.00 63 1014.6
20260509101014 17 154 3.2 16.1 0.00 0.00 0.00 65 1014.5
20260509100513 17 119 1.6 14.5 0.00 0.00 0.00 66 1014.5
20260509100029 16 136 6.4 14.5 0.00 0.00 0.00 64 1014.5
20260509095513 17 172 3.2 17.7 0.00 0.00 0.00 64 1014.5
20260509095018 16 223 3.2 17.7 0.00 0.00 0.00 64 1014.6
20260509094528 16 234 6.4 17.7 0.00 0.00 0.00 64 1014.6
20260509094014 16 207 1.6 6.4 0.00 0.00 0.00 67 1014.7
20260509093513 16 309 1.6 12.9 0.00 0.00 0.00 68 1014.9
20260509093031 16 245 1.6 16.1 0.00 0.00 0.00 69 1014.8
20260509092520 16 111 3.2 17.7 0.00 0.00 0.00 69 1014.8
20260509092010 15 272 4.8 25.7 0.00 0.00 0.00 69 1014.7
20260509091532 15 292 9.7 25.7 0.00 0.00 0.00 69 1014.7
20260509091014 15 59 8.0 22.5 0.00 0.00 0.00 68 1014.7
20260509090513 15 207 6.4 20.9 0.00 0.00 0.00 68 1014.7
20260509090030 15 236 8.0 20.9 0.00 0.00 0.00 69 1014.6
20260509085513 15 153 3.2 17.7 0.00 0.00 0.00 72 1014.7
20260509085013 15 233 4.8 17.7 0.00 0.00 0.00 69 1014.9
20260509084535 15 156 4.8 14.5 0.00 0.00 0.00 69 1014.9
20260509084020 16 38 3.2 12.9 0.00 0.00 0.00 69 1014.9
20260509083513 15 242 1.6 16.1 0.00 0.00 0.00 71 1015.1
20260509083037 15 278 4.8 16.1 0.00 0.00 0.00 71 1015.1
20260509082515 15 302 3.2 14.5 0.00 0.00 0.00 71 1015.1
20260509082013 15 153 3.2 11.3 0.00 0.00 0.00 72 1015.2
20260509081530 15 173 4.8 12.9 0.00 0.00 0.00 70 1015.2
20260509081013 15 40 1.6 12.9 0.00 0.00 0.00 71 1015.2
20260509080511 15 161 1.6 14.5 0.00 0.00 0.00 72 1015.3
20260509080036 15 189 3.2 14.5 0.00 0.00 0.00 71 1015.3
20260509075515 15 234 1.6 14.5 0.00 0.00 0.00 74 1015.3
20260509075014 15 214 1.6 14.5 0.00 0.00 0.00 76 1015.3
20260509074528 14 338 3.2 14.5 0.00 0.00 0.00 75 1015.4
20260509074012 14 173 4.8 17.7 0.00 0.00 0.00 74 1015.4
20260509073513 14 192 6.4 17.7 0.00 0.00 0.00 75 1015.3
20260509073028 14 223 4.8 14.5 0.00 0.00 0.00 74 1015.2
20260509072511 14 190 3.2 8.0 0.00 0.00 0.00 75 1015.3
20260509072010 14 30 1.6 11.3 0.00 0.00 0.00 76 1015.2
20260509071530 13 208 1.6 14.5 0.00 0.00 0.00 76 1015.2
20260509071010 13 191 4.8 19.3 0.00 0.00 0.00 76 1015.1
20260509070510 13 213 6.4 19.3 0.00 0.00 0.00 76 1015.2
20260509070028 13 279 1.6 12.9 0.00 0.00 0.00 77 1015.1
20260509065511 13 223 1.6 12.9 0.00 0.00 0.00 78 1015.1
20260509065011 13 273 3.2 9.7 0.00 0.00 0.00 78 1015.1
20260509064533 13 55 0.0 9.7 0.00 0.00 0.00 79 1015.0
20260509064016 13 177 3.2 9.7 0.00 0.00 0.00 79 1015.0
20260509063513 13 78 1.6 11.3 0.00 0.00 0.00 80 1015.0
20260509063030 12 107 4.8 11.3 0.00 0.00 0.00 79 1015.0
20260509062511 12 157 3.2 11.3 0.00 0.00 0.00 80 1015.0
20260509062018 12 176 3.2 16.1 0.00 0.00 0.00 81 1015.1
20260509061538 12 207 1.6 16.1 0.00 0.00 0.00 81 1015.1
20260509061019 12 173 3.2 12.9 0.00 0.00 0.00 82 1015.1
20260509060519 12 182 3.2 12.9 0.00 0.00 0.00 82 1015.1
20260509060036 12 140 1.6 8.0 0.00 0.00 0.00 83 1015.1
20260509055519 12 15 0.0 9.7 0.00 0.00 0.00 83 1015.0
20260509055019 12 230 1.6 9.7 0.00 0.00 0.00 83 1015.0
20260509054542 11 123 3.2 8.0 0.00 0.00 0.00 84 1015.1
20260509054018 11 216 0.0 8.0 0.00 0.00 0.00 85 1015.2
20260509053519 11 143 1.6 8.0 0.00 0.00 0.00 85 1015.2
20260509053037 11 238 1.6 8.0 0.00 0.00 0.00 85 1015.1
20260509052516 11 93 1.6 8.0 0.00 0.00 0.00 85 1015.0
20260509052018 11 208 1.6 6.4 0.00 0.00 0.00 86 1015.0
20260509051533 11 0 0.0 6.4 0.00 0.00 0.00 86 1015.0
20260509051018 11 96 1.6 6.4 0.00 0.00 0.00 86 1015.0
20260509050515 11 103 1.6 6.4 0.00 0.00 0.00 86 1014.9
20260509050054 10 240 0.0 6.4 0.00 0.00 0.00 86 1014.9
20260509045519 10 0 0.0 3.2 0.00 0.00 0.00 86 1014.8
20260509045019 10 0 0.0 3.2 0.00 0.00 0.00 86 1014.9
20260509044549 11 141 0.0 3.2 0.00 0.00 0.00 86 1014.9
20260509044018 10 192 0.0 3.2 0.00 0.00 0.00 86 1014.8
20260509043520 10 0 0.0 3.2 0.00 0.00 0.00 86 1014.9
20260509043039 10 0 0.0 4.8 0.00 0.00 0.00 86 1014.8
20260509042519 10 246 0.0 6.4 0.00 0.00 0.00 86 1014.9
20260509042022 10 232 0.0 6.4 0.00 0.00 0.00 86 1014.8
20260509041535 10 256 0.0 1.6 0.00 0.00 0.00 85 1014.9
20260509041019 11 225 0.0 3.2 0.00 0.00 0.00 85 1014.8
20260509040518 11 146 0.0 4.8 0.00 0.00 0.00 85 1014.9
20260509040035 11 200 1.6 4.8 0.00 0.00 0.00 85 1014.9
20260509035518 11 0 0.0 4.8 0.00 0.00 0.00 84 1014.8
20260509035021 11 276 0.0 4.8 0.00 0.00 0.00 84 1014.8
20260509034533 11 116 1.6 8.0 0.00 0.00 0.00 84 1014.9
20260509034018 11 82 0.0 8.0 0.00 0.00 0.00 84 1015.0
20260509033519 11 106 1.6 9.7 0.00 0.00 0.00 84 1015.0
20260509033040 11 88 3.2 9.7 0.00 0.00 0.00 84 1014.9
20260509032519 11 78 1.6 4.8 0.00 0.00 0.00 84 1014.9
20260509032041 11 105 1.6 4.8 0.00 0.00 0.00 84 1014.9
20260509031531 11 151 1.6 4.8 0.00 0.00 0.00 83 1015.0
20260509031011 11 86 1.6 4.8 0.00 0.00 0.00 83 1014.9
20260509030511 11 222 1.6 4.8 0.00 0.00 0.00 83 1015.0
20260509030036 11 106 1.6 9.7 0.00 0.00 0.00 82 1014.9
20260509025513 11 188 3.2 9.7 0.00 0.00 0.00 82 1014.8
20260509025014 11 161 3.2 8.0 0.00 0.00 0.00 81 1014.9
20260509024530 11 153 3.2 8.0 0.00 0.00 0.00 81 1014.9
20260509024013 11 136 3.2 8.0 0.00 0.00 0.00 81 1015.0
20260509023512 11 238 3.2 8.0 0.00 0.00 0.00 81 1015.0
20260509023037 11 178 1.6 11.3 0.00 0.00 0.00 81 1015.0
20260509022515 11 119 1.6 12.9 0.00 0.00 0.00 82 1015.1
20260509022009 11 263 3.2 12.9 0.00 0.00 0.00 82 1015.1
20260509021528 11 85 3.2 12.9 0.00 0.00 0.00 82 1015.0